This is the latest recevied weather packets stored in our database for station/object SR5MRF. If no packets are shown the sender has not sent any weather packets the latest 10 day(s).
| Time | Temp. | Humidity | Pressure | Rain* | Wind** | Luminosity | Snow |
|---|---|---|---|---|---|---|---|
| 1778155597 | 17.22° C | 68% | 1009.6 hPa | 0 mm | - | - | - |
| 1778155177 | 16.67° C | 69% | 1009.4 hPa | 0 mm | - | - | - |
| 1778155118 | 16.67° C | 69% | 1009.5 hPa | 0 mm | - | - | - |
| 1778154757 | 16.67° C | 69% | 1009.5 hPa | 0 mm | - | - | - |
| 1778154518 | 16.67° C | 69% | 1009.5 hPa | 0 mm | - | - | - |
| 1778154337 | 16.11° C | 71% | 1009.4 hPa | 0 mm | - | - | - |
| 1778153917 | 16.11° C | 71% | 1009.3 hPa | 0 mm | - | - | - |
| 1778153497 | 15.56° C | 71% | 1009.3 hPa | 0 mm | - | - | - |
| 1778153318 | 15.56° C | 70% | 1009.3 hPa | 0 mm | - | - | - |
| 1778153077 | 15.56° C | 70% | 1009.3 hPa | 0 mm | - | - | - |
| 1778152718 | 15.56° C | 70% | 1009.2 hPa | 0 mm | - | - | - |
| 1778152657 | 15.56° C | 70% | 1009.3 hPa | 0 mm | - | - | - |
| 1778152237 | 15.56° C | 70% | 1009.1 hPa | 0 mm | - | - | - |
| 1778152118 | 15.56° C | 70% | 1009.3 hPa | 0 mm | - | - | - |
| 1778151817 | 15.56° C | 70% | 1009.2 hPa | 0 mm | - | - | - |
| 1778151518 | 15.56° C | 70% | 1009 hPa | 0 mm | - | - | - |
| 1778151397 | 15.56° C | 70% | 1009.1 hPa | 0 mm | - | - | - |
| 1778150977 | 15.56° C | 70% | 1009.1 hPa | 0 mm | - | - | - |
| 1778150918 | 15.56° C | 70% | 1009.2 hPa | 0 mm | - | - | - |
| 1778150557 | 15.56° C | 70% | 1009.1 hPa | 0 mm | - | - | - |
| 1778150318 | 15.56° C | 69% | 1008.9 hPa | 0 mm | - | - | - |
| 1778150137 | 15.56° C | 69% | 1009.1 hPa | 0 mm | - | - | - |
| 1778149717 | 16.11° C | 69% | 1008.9 hPa | 0 mm | - | - | - |
| 1778149297 | 16.11° C | 68% | 1008.9 hPa | 0 mm | - | - | - |
| 1778148877 | 16.67° C | 68% | 1008.8 hPa | 0 mm | - | - | - |
* Rain latest hour (hover to see other rain measurements)
** Current wind speed in m/s (hover to see current wind gust speed)